カタログに戻る

STARLINK-4212

運用中通信VLEO
NORAD 52846·PAYLOAD·🇺🇸 United States

打ち上げ Jun 17, 2022 から Cape Canaveral Space Force Station

Loading…

次のパス (今後24時間)

TLE

最新Source: CelesTrak SupGP

元期: Sep 14, 2026, 20:43 UTC

1 52846C 22062S   26257.86368056  .00048814  00000+0  15701-2 0  2578
2 52846  53.1582 255.3032 0001316  88.9120 322.1269 15.31670146    10

AllMySatでSTARLINK-4212をリアルタイム追跡

Download on the App Store